Weather History for Pittsfield, IL

Change the Weather History Date:

Wednesday, February 13, 2013

  Actual Average (KUIN) Record (KUIN)
Temperature  
Mean Temperature 40 °F 30 °F  
Max Temperature 49 °F 38 °F 70 °F (1921)
Min Temperature 32 °F 22 °F -29 °F (1905)
Degree Days  
Heating Degree Days 24 35  
Month to date heating degree days 472  
Since 1 July heating degree days 3858  
Cooling Degree Days 0 0  
Month to date cooling degree days 0  
Year to date cooling degree days 0  
Moisture  
Dew Point 29 °F    
Average Humidity 68    
Maximum Humidity 88    
Minimum Humidity 44    
Precipitation  
Precipitation 0.00 in 0.07 in 1.22 in (2005)
Month to date precipitation 0.78  
Year to date precipitation 2.30  
Sea Level Pressure  
Sea Level Pressure 29.84 in    
Wind  
Wind Speed 6 mph (SW)    
Max Wind Speed 15 mph    
Max Gust Speed 21 mph    
Visibility 10 miles    
Events      
T = Trace of Precipitation, MM = Missing Value Source: NWS Daily Summary

Daily Weather History Graph

Daily Weather History Graph

Search for Another Location

Airport:

Trip Planner

Search our weather history database for the weather conditions in past years. The results will help you decide how hot, cold, wet, or windy it might be!

Date:

Astronomy

Feb. 13, 2013 Rise Set
Actual Time 6:57 AM CST 5:37 PM CST
Civil Twilight 6:29 AM CST 6:05 PM CST
Nautical Twilight 5:58 AM CST 6:36 PM CST
Astronomical Twilight 5:27 AM CST 7:08 PM CST
Moon 8:27 AM CST (2/13) 9:39 PM CST (2/13)
Length of Visible Light 11h 35m
Length of Day
10h 40m
Waxing Crescent, 14% of the Moon is Illuminated
Feb 13
Waxing Crescent
Feb 17
First Quarter
Feb 25
Full
Mar 4
Last Quarter
Mar 11
New

Hourly Weather History & Observations

Time (CST) Temp. Windchill Dew Point Humidity Pressure Visibility Wind Dir Wind Speed Gust Speed Precip Events Conditions
12:15 AM 32.4 °F 27.9 °F 29.3 °F 88% 29.95 in 10.0 mi SW 4.6 mph - N/A   Clear
12:35 AM 34.3 °F 31.4 °F 28.0 °F 78% 29.94 in 10.0 mi West 3.5 mph - N/A   Clear
12:55 AM 34.0 °F - 27.9 °F 78% 29.93 in 10.0 mi Calm Calm - N/A   Clear
1:15 AM 33.8 °F 30.8 °F 28.2 °F 80% 29.93 in 10.0 mi West 3.5 mph - N/A   Clear
1:35 AM 34.0 °F 31.0 °F 28.0 °F 79% 29.92 in 10.0 mi WSW 3.5 mph - N/A   Clear
1:55 AM 33.6 °F 30.6 °F 27.5 °F 78% 29.91 in 10.0 mi West 3.5 mph - N/A   Clear
2:15 AM 33.4 °F 29.1 °F 27.3 °F 78% 29.91 in 10.0 mi WSW 4.6 mph - N/A   Clear
2:35 AM 33.4 °F 30.4 °F 27.3 °F 78% 29.90 in 10.0 mi West 3.5 mph - N/A   Clear
2:55 AM 33.3 °F 28.9 °F 27.5 °F 79% 29.89 in 10.0 mi West 4.6 mph - N/A   Clear
3:15 AM 33.8 °F 30.8 °F 27.7 °F 78% 29.88 in 10.0 mi West 3.5 mph - N/A   Clear
3:35 AM 33.4 °F 28.1 °F 28.9 °F 84% 29.88 in 10.0 mi South 5.8 mph - N/A   Clear
3:55 AM 33.3 °F 28.9 °F 28.9 °F 84% 29.88 in 10.0 mi SW 4.6 mph - N/A   Clear
4:15 AM 33.3 °F 27.9 °F 28.8 °F 84% 29.87 in 10.0 mi SSW 5.8 mph - N/A   Clear
4:35 AM 33.1 °F 30.0 °F 28.4 °F 83% 29.87 in 10.0 mi SW 3.5 mph - N/A   Clear
4:55 AM 32.9 °F 29.8 °F 28.4 °F 84% 29.86 in 10.0 mi SW 3.5 mph - N/A   Clear
5:15 AM 32.5 °F 29.3 °F 28.8 °F 86% 29.86 in 10.0 mi SSW 3.5 mph - N/A   Clear
5:35 AM 32.4 °F 27.9 °F 28.6 °F 86% 29.86 in 10.0 mi SW 4.6 mph - N/A   Clear
5:55 AM 32.5 °F 28.1 °F 28.2 °F 84% 29.86 in 10.0 mi SW 4.6 mph - N/A   Clear
6:15 AM 32.9 °F 27.5 °F 28.0 °F 82% 29.85 in 10.0 mi WSW 5.8 mph - N/A   Clear
6:35 AM 33.1 °F 26.9 °F 27.9 °F 81% 29.85 in 10.0 mi SW 6.9 mph - N/A   Clear
6:55 AM 33.1 °F 28.7 °F 27.7 °F 81% 29.85 in 10.0 mi SW 4.6 mph - N/A   Clear
7:15 AM 33.1 °F 27.7 °F 27.5 °F 80% 29.86 in 10.0 mi WSW 5.8 mph - N/A   Clear
7:35 AM 32.7 °F 27.3 °F 28.0 °F 83% 29.86 in 10.0 mi SSW 5.8 mph - N/A   Clear
7:55 AM 34.0 °F 28.0 °F 28.4 °F 80% 29.86 in 10.0 mi SW 6.9 mph - N/A   Clear
8:15 AM 34.9 °F 29.0 °F 28.8 °F 78% 29.86 in 10.0 mi SW 6.9 mph - N/A   Clear
8:35 AM 36.0 °F 31.1 °F 28.8 °F 75% 29.86 in 10.0 mi SW 5.8 mph - N/A   Clear
8:55 AM 36.9 °F 30.1 °F 28.4 °F 71% 29.86 in 10.0 mi WSW 9.2 mph - N/A   Clear
9:15 AM 37.6 °F 32.3 °F 28.0 °F 68% 29.86 in 10.0 mi WSW 6.9 mph - N/A   Clear
9:35 AM 38.5 °F 32.7 °F 28.2 °F 67% 29.85 in 10.0 mi WSW 8.1 mph - N/A   Clear
9:55 AM 39.6 °F 33.5 °F 29.5 °F 67% 29.85 in 10.0 mi SW 9.2 mph - N/A   Clear
10:15 AM 40.5 °F 35.1 °F 29.5 °F 65% 29.85 in 10.0 mi SW 8.1 mph - N/A   Clear
10:35 AM 42.1 °F 37.1 °F 29.5 °F 61% 29.85 in 10.0 mi WSW 8.1 mph - N/A   Clear
10:55 AM 42.1 °F 35.7 °F 28.4 °F 58% 29.85 in 10.0 mi WSW 11.5 mph 16.1 mph N/A   Clear
11:15 AM 42.8 °F 37.0 °F 29.8 °F 60% 29.85 in 10.0 mi WSW 10.4 mph 16.1 mph N/A   Clear
11:35 AM 44.2 °F 39.2 °F 29.8 °F 57% 29.85 in 10.0 mi WSW 9.2 mph - N/A   Clear
11:55 AM 45.0 °F 39.3 °F 28.6 °F 53% 29.84 in 10.0 mi WSW 11.5 mph - N/A   Clear
12:15 PM 45.9 °F 40.8 °F 28.8 °F 51% 29.83 in 10.0 mi SW 10.4 mph - N/A   Clear
12:35 PM 46.6 °F - 27.5 °F 47% 29.82 in 10.0 mi SW 10.4 mph - N/A   Clear
12:55 PM 47.3 °F - 28.0 °F 47% 29.81 in 10.0 mi WSW 13.8 mph - N/A   Clear
1:15 PM 48.2 °F - 29.8 °F 49% 29.81 in 10.0 mi WSW 10.4 mph 17.3 mph N/A   Clear
1:35 PM 48.4 °F - 27.9 °F 45% 29.80 in 10.0 mi West 12.7 mph - N/A   Clear
1:55 PM 49.3 °F - 29.1 °F 46% 29.80 in 10.0 mi WSW 12.7 mph - N/A   Clear
2:15 PM 49.3 °F - 28.9 °F 45% 29.80 in 10.0 mi West 11.5 mph - N/A   Clear
2:35 PM 49.8 °F - 28.6 °F 44% 29.80 in 10.0 mi WSW 15.0 mph 20.7 mph N/A   Clear
2:55 PM 49.6 °F - 29.7 °F 46% 29.80 in 10.0 mi West 12.7 mph - N/A   Clear
3:15 PM 49.5 °F - 29.3 °F 46% 29.81 in 10.0 mi West 13.8 mph 18.4 mph N/A   Clear
3:35 PM 49.1 °F - 29.7 °F 47% 29.80 in 10.0 mi WSW 12.7 mph 19.6 mph N/A   Clear
3:55 PM 48.6 °F - 29.1 °F 47% 29.81 in 10.0 mi West 9.2 mph 19.6 mph N/A   Clear
4:15 PM 48.2 °F - 30.4 °F 50% 29.81 in 10.0 mi WSW 10.4 mph - N/A   Clear
4:35 PM 47.5 °F - 30.9 °F 53% 29.81 in 10.0 mi WSW 6.9 mph - N/A   Clear
4:55 PM 47.5 °F - 30.7 °F 52% 29.82 in 10.0 mi WSW 6.9 mph - N/A   Clear
5:15 PM 46.8 °F - 30.9 °F 54% 29.82 in 10.0 mi WSW 8.1 mph - N/A   Clear
5:35 PM 45.5 °F 42.5 °F 31.1 °F 57% 29.82 in 10.0 mi WSW 5.8 mph - N/A   Clear
5:55 PM 44.8 °F 41.0 °F 31.1 °F 59% 29.82 in 10.0 mi WSW 6.9 mph - N/A   Clear
6:15 PM 43.2 °F 40.5 °F 31.1 °F 62% 29.82 in 10.0 mi SW 4.6 mph - N/A   Clear
6:35 PM 42.6 °F 39.9 °F 31.1 °F 64% 29.82 in 10.0 mi SW 4.6 mph - N/A   Clear
6:55 PM 41.9 °F 40.0 °F 30.6 °F 64% 29.82 in 10.0 mi WSW 3.5 mph - N/A   Clear
7:15 PM 40.8 °F 38.8 °F 30.6 °F 67% 29.82 in 10.0 mi SW 3.5 mph - N/A   Clear
7:35 PM 41.4 °F 39.4 °F 30.2 °F 65% 29.83 in 10.0 mi SSW 3.5 mph - N/A   Clear
7:55 PM 37.4 °F 34.9 °F 30.2 °F 75% 29.83 in 10.0 mi South 3.5 mph - N/A   Clear
8:15 PM 37.2 °F 34.7 °F 30.0 °F 75% 29.83 in 10.0 mi SSW 3.5 mph - N/A   Clear
8:35 PM 37.0 °F 33.3 °F 30.0 °F 76% 29.83 in 10.0 mi South 4.6 mph - N/A   Clear
8:55 PM 37.8 °F 35.3 °F 30.6 °F 75% 29.83 in 10.0 mi South 3.5 mph - N/A   Clear
9:15 PM 38.5 °F 35.0 °F 30.7 °F 74% 29.83 in 10.0 mi SSW 4.6 mph - N/A   Clear
9:35 PM 39.0 °F 34.8 °F 30.7 °F 72% 29.82 in 10.0 mi SSW 5.8 mph - N/A   Clear
9:55 PM 39.2 °F 34.2 °F 31.1 °F 73% 29.82 in 10.0 mi SSW 6.9 mph - N/A   Clear
10:15 PM 39.9 °F 35.1 °F 31.1 °F 71% 29.82 in 10.0 mi SSW 6.9 mph - N/A   Clear
10:35 PM 40.6 °F 33.8 °F 31.1 °F 69% 29.82 in 10.0 mi SSW 11.5 mph - N/A   Clear
10:55 PM 40.1 °F 34.7 °F 31.1 °F 70% 29.82 in 10.0 mi SSW 8.1 mph - N/A   Clear
11:15 PM 39.6 °F 34.7 °F 31.8 °F 74% 29.81 in 10.0 mi SSW 6.9 mph - N/A   Clear
11:35 PM 40.1 °F 34.1 °F 32.0 °F 73% 29.81 in 10.0 mi SSW 9.2 mph - N/A   Clear
11:55 PM 39.9 °F 34.5 °F 32.0 °F 73% 29.80 in 10.0 mi SSW 8.1 mph - N/A   Clear